1504519201.07,47744,18.0,73424.8,8.45,-0.11,-0.45,0,*71
1504519202.28,47745,18.0,73422.0,8.47,-0.19,-0.61,0,*7C
1504519203.48,47746,18.0,73422.5,8.47,-0.29,-0.69,0,*74
1504519204.7,47747,18.0,73424.8,8.49,-1.25,-1.91,0,*70
1504519205.92,47748,18.0,73422.0,8.49,-1.17,-2.03,0,*76
1504519207.15,47749,18.0,73422.8,8.47,0.17,-0.73,0,*50
1504519208.39,47750,18.0,73420.5,8.47,-5.93,-8.67,0,*71
1504519209.62,47751,18.0,73422.5,8.41,-2.91,-3.51,0,*7D
1504519210.83,47752,18.0,73424.0,8.39,-2.15,-2.67,0,*79
1504519212.04,47753,18.0,73430.5,8.39,-1.79,-2.11,0,*70
1504519213.24,47754,18.0,73428.5,8.39,-0.65,-1.01,0,*49
1504519214.43,47755,18.0,73430.5,8.39,0.17,-0.19,0,*58
1504519215.66,47756,18.0,73426.5,8.41,-0.89,-1.25,0,*40
1504519216.83,47757,18.0,73426.3,8.39,-0.65,-0.81,0,*73
1504519218.07,47758,18.0,73428.3,8.41,-2.03,-2.43,0,*7D
1504519219.28,47759,18.0,73430.5,8.41,-2.91,-3.15,0,*75
1504519220.46,47760,18.0,73430.5,8.39,-1.55,-1.75,0,*7F
1504519221.7,47761,18.0,73430.5,8.41,-1.87,-2.15,0,*7B
1504519222.91,47762,18.0,73432.8,8.39,-2.43,-2.67,0,*79
1504519224.12,47763,18.0,73428.5,8.41,-2.87,-2.91,0,*76
1504519225.36,47764,18.0,73434.8,8.41,-3.51,-3.15,0,*76
1504519226.57,47765,18.0,73434.5,8.41,-2.87,-2.15,0,*7C
1504519227.79,47766,18.0,73432.0,8.39,-2.63,-1.79,0,*73
1504519229.01,47767,18.0,73432.5,8.41,-2.99,-1.67,0,*77
1504519230.22,47768,18.0,73436.0,8.45,-1.47,0.05,0,*54
1504519231.45,47769,18.0,73434.0,8.47,-0.19,1.17,0,*6F
1504519232.67,47770,18.0,73438.8,8.51,-0.03,0.95,0,*60
1504519233.91,47771,18.0,73436.5,8.51,0.33,1.21,0,*41
1504519235.15,47772,18.0,73440.3,8.55,0.87,1.47,0,*49
1504519236.4,47773,18.0,73438.5,8.59,0.55,1.17,0,*4E
1504519237.6,47774,18.0,73440.0,8.59,-0.03,0.43,0,*67
1504519238.81,47775,18.0,73438.3,8.59,-0.45,-0.57,0,*7C
1504519240.03,47776,18.0,73436.3,8.59,-0.53,-0.89,0,*7B
1504519241.31,47777,18.0,73438.5,8.59,-1.05,-1.35,0,*7E
1504519242.58,47778,18.0,73444.8,8.63,-1.47,-1.99,0,*78
1504519243.77,47779,18.0,73444.3,8.57,-1.79,-2.43,0,*77
1504519244.99,47780,18.0,73448.0,8.59,-1.29,-1.67,0,*7F
1504519246.26,47781,18.0,73446.0,8.59,-2.03,-2.59,0,*7B
1504519247.5,47782,18.0,73448.8,8.57,-1.91,-2.55,0,*72
1504519248.77,47783,18.0,73448.0,8.55,-1.83,-2.67,0,*73
1504519249.96,47784,18.0,73448.8,8.57,-3.23,-4.33,0,*79
1504519251.17,47785,18.0,73450.5,8.55,-2.35,-3.35,0,*7D
1504519252.39,47786,18.0,73446.8,8.55,-3.35,-4.13,0,*7C
1504519253.61,47787,18.0,73448.3,8.53,-4.17,-4.81,0,*77
1504519254.83,47788,18.0,73440.3,8.53,-5.51,-6.19,0,*78
1504519256.02,47789,18.0,73442.5,8.49,-5.39,-6.01,0,*75
1504519257.24,47790,18.0,73438.3,8.49,-3.31,-3.43,0,*70
1504519258.45,47791,18.0,73438.5,8.49,-2.31,-2.11,0,*76
1504519259.72,47792,18.0,73438.5,8.51,-1.87,-1.35,0,*77
1504519260.93,47793,18.0,73438.8,8.51,-0.61,-0.11,0,*78
1504519262.12,47794,18.0,73434.3,8.57,-0.73,-0.41,0,*7F
1504519263.3,47795,18.0,73430.8,8.57,0.43,0.79,0,*76
1504519264.56,47796,18.0,73432.0,8.59,0.91,1.17,0,*4D
1504519265.79,47797,18.0,73436.3,8.65,1.37,1.43,0,*7F
1504519267.0,47798,18.0,73436.5,8.67,-0.19,-0.57,0,*7B
1504519268.19,47799,18.0,73436.0,8.69,-0.11,-0.69,0,*71
1504519269.42,47800,18.0,73446.0,8.67,-0.61,-1.43,0,*4E
1504519270.64,47801,18.0,73446.3,8.69,-0.81,-1.83,0,*43
1504519271.88,47802,18.0,73440.0,8.67,-4.37,-5.31,0,*7A
1504519273.15,47803,18.0,73440.8,8.63,-1.99,-2.59,0,*77
1504519274.4,47804,18.0,73436.3,8.63,-1.29,-1.83,0,*7F
1504519275.59,47805,18.0,73430.3,8.65,-1.75,-2.15,0,*7D
1504519276.83,47806,18.0,73424.0,8.63,-1.95,-2.23,0,*73
1504519278.08,47807,18.0,73428.0,8.63,-1.99,-2.27,0,*7A
1504519279.35,47808,18.0,73438.0,8.63,-1.99,-1.99,0,*73
1504519280.56,47809,18.0,73442.3,8.63,-0.33,-0.65,0,*71
1504519281.8,47810,18.0,73446.0,8.63,0.25,-0.23,0,*51
1504519283.02,47811,18.0,73448.5,8.65,-2.99,-3.51,0,*78
1504519284.23,47812,18.0,73446.5,8.63,-2.15,-2.39,0,*76
1504519285.45,47813,18.0,73442.0,8.59,-2.95,-2.91,0,*74
1504519286.66,47814,18.0,73438.3,8.57,-2.35,-2.03,0,*7C
1504519287.88,47815,18.0,73438.8,8.57,-1.33,-0.85,0,*44
1504519289.09,47816,18.0,73438.8,8.57,-1.33,-1.09,0,*72
1504519290.3,47817,18.0,73438.0,8.59,-0.57,-0.37,0,*72
1504519291.52,47818,18.0,73436.3,8.59,0.09,0.17,0,*44
1504519292.72,47819,18.0,73434.5,8.59,-0.29,-0.57,0,*73
1504519293.92,47820,18.0,73432.8,8.59,0.05,-0.53,0,*6E
1504519295.12,47821,18.0,73432.0,8.57,0.41,-0.19,0,*5F
1504519296.35,47822,18.0,73434.5,8.59,-0.41,-1.01,0,*47
1504519297.53,47823,18.0,73428.3,8.65,0.09,-0.33,0,*68
1504519298.76,47824,18.0,73424.5,8.63,-0.53,-0.89,0,*7A
1504519300.0,47825,18.06,73426.0,8.63,-0.73,-1.13,0,*4B
1504519301.19,47826,18.0,73432.3,8.65,-0.65,-1.29,0,*40
1504519302.42,47827,18.0,73438.5,8.51,-4.89,-5.35,0,*79
1504519303.64,47828,18.0,73442.3,8.49,-1.99,-2.43,0,*7D
1504519304.83,47829,18.0,73442.3,8.47,0.01,-0.29,0,*61
1504519306.06,47830,18.0,73446.8,8.47,0.25,-0.11,0,*54
1504519307.24,47831,18.0,73446.3,8.49,0.05,-0.37,0,*6D
1504519308.43,47832,18.0,73448.5,8.51,0.09,-0.61,0,*68
1504519309.66,47833,18.0,73446.8,8.49,-0.27,-0.93,0,*7C
1504519310.88,47834,18.0,73444.5,8.51,-0.37,-0.89,0,*78
1504519312.11,47835,18.0,73442.3,8.51,-0.49,-1.01,0,*41
1504519313.31,47836,18.0,73438.5,8.55,-0.29,-0.57,0,*72
1504519314.52,47837,18.0,73432.3,8.55,-0.11,-0.49,0,*77
1504519315.73,47838,18.0,73436.5,8.55,-0.69,-1.17,0,*4D
1504519316.95,47839,18.0,73442.3,8.55,-0.69,-1.21,0,*49
1504519318.16,47840,18.0,73444.0,8.53,-0.23,-0.73,0,*79
1504519319.34,47841,18.0,73446.0,8.57,-0.81,-1.33,0,*41
1504519320.57,47842,18.0,73442.5,8.57,-0.27,-0.93,0,*75
1504519321.8,47843,18.0,73440.3,8.59,-0.37,-1.13,0,*42
1504519323.02,47844,18.0,73444.3,8.59,-0.45,-1.21,0,*41
1504519324.28,47845,18.0,73442.8,8.59,-1.13,-1.91,0,*79
1504519325.55,47846,18.0,73444.5,8.59,-1.05,-1.91,0,*7D
1504519326.77,47847,18.0,73450.5,8.59,-0.81,-1.79,0,*47
1504519327.99,47848,18.0,73448.3,8.59,-2.31,-3.83,0,*76
1504519329.22,47849,18.0,73444.8,8.59,-2.39,-3.51,0,*70
1504519330.43,47850,18.0,73448.0,8.59,-2.91,-3.79,0,*70
1504519331.64,47851,18.0,73444.0,8.59,-2.19,-3.07,0,*78
1504519332.85,47852,18.0,73446.8,8.59,-2.27,-3.39,0,*7B
1504519334.08,47853,18.0,73452.0,8.57,-3.75,-5.11,0,*7E
1504519335.3,47854,18.0,73450.3,8.57,-3.07,-4.85,0,*70
1504519336.52,47855,18.0,73452.8,8.55,-2.19,-4.21,0,*73
1504519337.74,47856,18.0,73452.3,8.57,-2.35,-5.27,0,*7B
1504519338.96,47857,18.0,73454.0,8.57,-3.63,-7.11,0,*7F
1504519340.16,47858,18.0,73452.3,8.57,-4.85,-8.75,0,*72
1504519341.38,47859,18.0,73452.3,8.53,-5.43,-9.15,0,*7B
1504519342.62,47860,18.0,73454.3,8.53,-5.19,-8.51,0,*7F
1504519343.83,47861,18.0,73454.5,8.53,-4.53,-7.77,0,*7A
1504519345.05,47862,18.0,73448.0,8.53,-4.53,-7.57,0,*7B
1504519346.29,47863,18.0,73450.8,8.53,-5.19,-7.95,0,*7B
1504519347.51,47864,18.0,73448.3,8.53,-5.55,-7.95,0,*74
1504519348.75,47865,18.0,73450.0,8.55,-5.23,-6.85,0,*72
1504519350.0,47866,18.0,73450.8,8.55,-5.15,-6.47,0,*7A
1504519351.26,47867,18.0,73450.8,8.55,-4.73,-5.11,0,*7A
1504519352.52,47868,18.0,73452.8,8.59,-3.55,-3.43,0,*7B
1504519353.74,47869,18.0,73454.5,8.65,-2.79,-2.03,0,*7F
1504519354.98,47870,18.0,73450.5,8.67,-2.11,-0.81,0,*43
1504519356.22,47871,18.0,73450.8,8.71,-1.17,0.29,0,*6F
1504519357.41,47872,18.0,73446.5,8.75,-1.67,0.01,0,*55
1504519358.66,47873,18.0,73448.0,8.75,0.79,2.09,0,*4D
1504519359.89,47874,18.0,73448.8,8.81,2.01,2.91,0,*7D
1504519361.12,47875,18.06,73454.5,8.87,2.43,3.15,0,*71
1504519362.32,47876,18.0,73450.0,8.91,1.79,2.21,0,*79
1504519363.54,47877,18.0,73450.5,8.95,1.71,2.01,0,*76
1504519364.75,47878,18.0,73448.3,8.99,1.13,1.01,0,*72
1504519365.95,47879,18.0,73448.3,8.99,0.29,0.13,0,*79
1504519367.14,47880,18.0,73450.3,8.99,0.25,-0.03,0,*6F
1504519368.33,47881,18.0,73448.0,9.03,0.05,-0.23,0,*6C
1504519369.52,47882,18.0,73444.0,9.03,0.05,-0.23,0,*6F
1504519370.7,47883,18.0,73442.3,9.03,-0.53,-0.73,0,*75
1504519371.88,47884,18.0,73438.3,9.03,-0.69,-0.81,0,*76
1504519373.05,47885,18.0,73436.3,9.03,-0.57,-0.65,0,*70
1504519374.22,47886,18.0,73440.5,9.03,-0.33,-0.29,0,*79
1504519375.43,47887,18.06,73446.0,9.03,-0.97,-0.73,0,*79
1504519376.61,47888,18.0,73448.5,9.03,-0.73,-0.53,0,*7E
1504519377.82,47889,18.0,73444.3,9.01,-1.29,-1.33,0,*74
1504519379.04,47890,18.06,73448.3,9.01,-1.67,-1.51,0,*72
1504519380.25,47891,18.0,73440.0,9.01,-0.73,-0.53,0,*74
1504519381.48,47892,18.0,73442.3,9.01,-1.21,-0.93,0,*4D
1504519382.73,47893,18.0,73442.0,9.01,-8.85,-7.73,0,*72
1504519383.96,47894,18.06,73446.3,8.93,-2.67,-2.39,0,*72
1504519385.15,47895,18.0,73448.0,8.91,-1.55,-1.51,0,*7E
1504519386.33,47896,18.0,73450.0,8.91,-0.77,-0.65,0,*7A
1504519387.54,47897,18.0,73448.5,8.91,-0.97,-1.17,0,*41
1504519388.75,47898,18.0,73444.3,8.91,-1.79,-2.07,0,*7D
1504519389.94,47899,18.0,73446.0,8.91,-1.33,-1.63,0,*73
1504519391.17,47900,18.0,73442.3,8.89,-0.45,-0.89,0,*7E
1504519392.38,47901,18.0,73448.0,8.89,-1.33,-2.19,0,*74
1504519393.62,47902,18.0,73448.5,8.89,-1.95,-2.87,0,*7C
1504519394.83,47903,18.0,73446.0,8.85,-3.31,-4.45,0,*75
1504519396.04,47904,18.06,73450.0,8.85,-2.15,-3.23,0,*72
1504519397.28,47905,18.0,73440.0,8.79,-4.73,-5.93,0,*7B
1504519398.49,47906,18.0,73442.3,8.75,-3.07,-4.25,0,*7C
1504519399.68,47907,18.0,73444.0,8.73,-2.79,-4.13,0,*76
1504519400.9,47908,18.0,73446.0,8.73,-2.47,-3.75,0,*73
1504519402.13,47909,18.0,73444.8,8.73,-2.51,-4.01,0,*71
1504519403.37,47910,18.0,73446.8,8.71,-2.03,-3.83,0,*71
1504519404.59,47911,18.06,73448.8,8.71,-3.39,-5.51,0,*71
1504519405.86,47912,18.0,73448.0,8.71,-3.43,-5.65,0,*78
1504519407.09,47913,18.0,73446.5,8.69,-3.83,-5.31,0,*7D
1504519408.34,47914,18.0,73444.5,8.67,-2.55,-3.71,0,*7C
1504519409.58,47915,18.0,73446.5,8.69,-2.67,-3.71,0,*72
1504519410.82,47916,18.0,73446.0,8.69,-2.75,-4.01,0,*72
1504519412.03,47917,18.0,73442.3,8.71,-1.55,-2.79,0,*72
1504519413.25,47918,18.0,73446.5,8.69,-1.47,-2.83,0,*72
1504519414.43,47919,18.0,73444.3,8.73,-1.63,-2.95,0,*79
1504519415.64,47920,18.0,73446.5,8.73,-0.29,-1.39,0,*49
1504519416.83,47921,18.0,73446.8,8.73,0.33,-0.37,0,*51
1504519418.06,47922,18.0,73444.3,8.77,0.47,0.05,0,*49
1504519419.3,47923,18.0,73442.5,8.77,0.29,-0.27,0,*5D
1504519420.54,47924,18.0,73446.5,8.81,1.37,1.05,0,*71
1504519421.78,47925,18.0,73446.0,8.81,0.71,0.17,0,*71
1504519423.03,47926,18.06,73444.3,8.87,-21.57,-20.35,0,*71
1504519424.23,47927,18.0,73442.5,8.73,-2.67,-2.91,0,*77
1504519425.49,47928,18.0,73446.8,8.71,1.33,0.29,0,*49
1504519426.69,47929,18.0,73446.0,8.73,1.29,0.01,0,*7B
1504519427.91,47930,18.06,73446.5,8.71,0.05,-1.43,0,*54
1504519429.15,47931,18.0,73446.0,8.71,0.91,-0.77,0,*5E
1504519430.36,47932,18.0,73448.8,8.73,1.29,-0.53,0,*6B
1504519431.55,47933,18.0,73448.0,8.73,0.63,-1.29,0,*69
1504519432.74,47934,18.0,73446.8,8.73,-0.11,-2.39,0,*44
1504519433.98,47935,18.0,73450.5,8.71,-0.15,-2.51,0,*4D
1504519435.19,47936,18.06,73454.3,8.71,-1.29,-4.05,0,*77
1504519436.44,47937,18.0,73448.3,8.69,-2.75,-5.69,0,*7E
1504519437.68,47938,18.0,73450.0,8.63,-2.27,-5.07,0,*74
1504519438.95,47939,18.0,73444.8,8.63,-1.95,-4.89,0,*78
1504519440.17,47940,18.0,73446.8,8.59,-1.67,-4.41,0,*76
1504519441.41,47941,18.06,73446.5,8.59,-1.87,-4.49,0,*71
1504519442.63,47942,18.0,73444.8,8.59,-1.33,-3.91,0,*7F
1504519443.82,47943,18.0,73446.5,8.57,-1.33,-4.09,0,*76
1504519445.07,47944,18.0,73450.3,8.57,-1.95,-4.89,0,*75
1504519446.31,47945,18.0,73444.0,8.57,-2.07,-4.77,0,*7D
1504519447.54,47946,18.0,73450.5,8.57,-1.05,-3.55,0,*78
1504519448.75,47947,18.0,73450.0,8.57,-0.29,-2.67,0,*46
1504519449.97,47948,18.06,73448.5,8.59,-0.41,-2.95,0,*44
1504519451.22,47949,18.06,73448.3,8.53,-5.19,-8.07,0,*76
1504519452.44,47950,18.06,73448.3,8.53,-2.87,-4.93,0,*7F
1504519453.68,47951,18.0,73444.5,8.53,-2.07,-3.51,0,*7F
1504519454.86,47952,18.0,73446.5,8.57,-1.79,-3.19,0,*7E
1504519456.1,47953,18.06,73450.5,8.55,-0.49,-2.47,0,*45
1504519457.31,47954,18.0,73448.3,8.55,-0.57,-3.07,0,*48
1504519458.54,47955,18.0,73448.3,8.55,0.51,-1.79,0,*69
1504519459.79,47956,18.0,73444.5,8.59,0.17,-2.51,0,*6D
1504519460.98,47957,18.0,73446.3,8.65,-0.53,-3.35,0,*4D
1504519462.2,47958,18.0,73448.8,8.65,-1.01,-3.79,0,*7C
1504519463.42,47959,18.06,73450.8,8.63,-7.87,-10.53,0,*49
1504519464.7,47960,18.0,73450.5,8.59,-1.99,-4.85,0,*7D
1504519465.91,47961,18.0,73450.5,8.59,-0.77,-4.05,0,*45
1504519467.12,47962,18.06,73454.0,8.63,-0.37,-4.13,0,*4C
1504519468.37,47963,18.0,73452.8,8.63,-1.75,-5.61,0,*7E
1504519469.61,47964,18.0,73452.5,8.67,-3.59,-7.15,0,*70
1504519470.85,47965,18.0,73452.8,8.63,-3.87,-6.23,0,*72
1504519472.08,47966,18.06,73454.3,8.63,-3.39,-4.57,0,*75
1504519473.3,47967,18.0,73452.0,8.65,-1.87,-2.39,0,*7B
1504519474.55,47968,18.0,73448.8,8.69,-2.11,-2.11,0,*7E
1504519475.78,47969,18.0,73452.0,8.69,-1.47,-0.85,0,*40
1504519477.0,47970,18.0,73444.5,8.73,-0.89,0.13,0,*52
1504519478.23,47971,18.06,73450.8,8.73,1.09,2.05,0,*72
1504519479.44,47972,18.06,73448.5,8.79,3.45,4.15,0,*76
1504519480.66,47973,18.0,73446.0,8.85,3.45,3.85,0,*7A
1504519481.86,47974,18.06,73448.5,8.91,3.53,3.55,0,*72
1504519483.06,47975,18.0,73446.8,8.95,3.71,3.55,0,*77
1504519484.31,47976,18.06,73448.0,8.97,3.71,3.41,0,*73
1504519485.57,47977,18.06,73444.8,9.01,3.45,3.03,0,*7D
1504519486.74,47978,18.0,73444.0,9.03,4.11,3.63,0,*70
1504519487.97,47979,18.0,73444.8,9.05,4.27,3.71,0,*71
1504519489.15,47980,18.0,73446.5,9.13,4.37,3.85,0,*7A
1504519490.39,47981,18.0,73446.0,9.13,3.79,3.15,0,*7F
1504519491.59,47982,18.0,73440.0,9.17,3.81,3.07,0,*7C
1504519492.79,47983,18.0,73442.0,9.17,2.35,1.51,0,*72
1504519494.03,47984,18.06,73440.8,9.17,1.33,0.47,0,*46
1504519495.23,47985,18.06,73440.8,9.17,1.93,1.05,0,*7A
1504519496.44,47986,18.0,73438.8,9.17,1.83,0.91,0,*44
1504519497.68,47987,18.0,73442.0,9.15,1.67,0.79,0,*4B
1504519498.92,47988,18.0,73442.0,9.15,1.89,0.95,0,*46
1504519500.17,47989,18.0,73444.8,9.15,2.17,1.09,0,*77
1504519501.4,47990,18.0,73442.5,9.15,2.35,1.21,0,*75
1504519502.63,47991,18.0,73436.8,9.15,1.29,0.09,0,*71
1504519503.87,47992,18.06,73446.3,9.15,1.43,0.33,0,*47
1504519505.11,47993,18.06,73450.8,9.15,0.25,-1.13,0,*69
1504519506.33,47994,18.0,73452.0,9.09,-1.87,-3.39,0,*7D
1504519507.51,47995,18.0,73454.8,9.03,-3.19,-4.49,0,*73
1504519508.76,47996,18.06,73454.3,9.01,-4.09,-5.65,0,*7B
1504519510.02,47997,18.0,73450.8,8.93,-3.55,-4.89,0,*7D
1504519511.26,47998,18.0,73446.0,8.87,-3.59,-5.15,0,*7F
1504519512.48,47999,18.0,73446.8,8.85,-4.21,-5.43,0,*77
1504519513.74,48000,18.06,73446.8,8.77,-4.21,-5.31,0,*79
1504519514.98,48001,18.0,73444.3,8.71,-2.79,-3.59,0,*7D
1504519516.22,48002,18.06,73446.5,8.71,-1.05,-1.55,0,*78
1504519517.41,48003,18.06,73446.8,8.71,0.05,-0.53,0,*62
1504519518.61,48004,18.0,73444.3,8.69,0.13,-0.49,0,*50
1504519519.79,48005,18.0,73442.3,8.69,-0.07,-0.57,0,*46
1504519521.01,48006,18.0,73442.3,8.69,-0.73,-1.35,0,*43
1504519522.23,48007,18.0,73442.8,8.67,0.17,-0.61,0,*53
1504519523.43,48008,18.0,73440.8,8.69,1.01,0.37,0,*4A
1504519524.65,48009,18.0,73442.3,8.71,0.59,-0.07,0,*60
1504519525.84,48010,18.06,73446.8,8.69,0.37,-0.57,0,*5C
1504519527.07,48011,18.0,73446.0,8.67,-1.33,-2.35,0,*7D
1504519528.28,48012,18.0,73444.0,8.67,-1.25,-2.19,0,*77
1504519529.53,48013,18.06,73444.8,8.63,-1.47,-2.23,0,*7F
1504519530.74,48014,18.0,73442.3,8.59,-0.69,-1.55,0,*4E
1504519531.96,48015,18.0,73444.3,8.59,0.05,-0.89,0,*68
1504519533.17,48016,18.06,73448.3,8.59,0.33,-0.65,0,*5C
1504519534.37,48017,18.0,73446.0,8.57,0.13,-0.73,0,*56
1504519535.57,48018,18.06,73446.0,8.57,0.21,-0.81,0,*55
1504519536.77,48019,18.06,73448.8,8.57,0.87,-0.07,0,*66
1504519537.99,48020,18.0,73442.3,8.57,0.17,-0.97,0,*5C
1504519539.23,48021,18.0,73444.8,8.59,0.83,-0.23,0,*51
1504519540.43,48022,18.06,73442.3,8.57,0.29,-0.81,0,*54
1504519541.64,48023,18.0,73440.8,8.57,-1.95,-3.11,0,*74
1504519542.89,48024,18.0,73444.8,8.53,-1.09,-2.11,0,*73
1504519544.12,48025,18.0,73448.0,8.51,-0.45,-1.47,0,*49
1504519545.33,48026,18.06,73450.5,8.51,0.33,-0.61,0,*53
1504519546.56,48027,18.06,73444.8,8.51,0.83,-0.11,0,*5E
1504519547.81,48028,18.06,73448.3,8.49,-2.11,-2.67,0,*7F
1504519549.01,48029,18.06,73452.3,8.49,0.21,-0.57,0,*53
1504519550.21,48030,18.0,73450.0,8.49,0.47,-0.29,0,*52
1504519551.41,48031,18.0,73450.3,8.49,0.79,0.05,0,*4D
1504519552.64,48032,18.06,73448.3,8.49,1.17,0.55,0,*42
1504519553.88,48033,18.06,73444.0,8.49,1.21,0.47,0,*45
1504519555.15,48034,18.06,73442.0,8.51,-1.99,-2.47,0,*7A
1504519556.36,48035,18.06,73446.0,8.49,-0.37,-1.05,0,*42
1504519557.58,48036,18.0,73446.5,8.49,-1.01,-1.67,0,*71
1504519558.78,48037,18.0,73448.5,8.45,-0.57,-1.21,0,*4C
1504519560.0,48038,18.0,73448.0,8.47,0.25,-0.33,0,*5B
1504519561.24,48039,18.0,73444.8,8.47,-0.11,-1.09,0,*48
1504519562.45,48040,18.0,73442.8,8.41,-2.27,-3.27,0,*79
1504519563.68,48041,18.06,73444.8,8.39,-0.27,-1.05,0,*47
1504519564.87,48042,18.06,73446.0,8.39,0.37,-0.61,0,*5B
1504519566.03,48043,18.0,73444.8,8.39,0.43,-0.45,0,*5F
1504519567.25,48044,18.06,73444.0,8.35,0.51,-0.23,0,*57
1504519568.44,48045,18.06,73446.8,8.39,0.83,0.05,0,*4C
1504519569.66,48046,18.06,73446.8,8.41,0.25,-0.69,0,*5B
1504519570.85,48047,18.0,73442.3,8.39,0.79,-0.07,0,*64
1504519572.09,48048,18.06,73452.0,8.41,0.21,-0.93,0,*54
1504519573.3,48049,18.06,73450.8,8.39,-1.13,-2.43,0,*78
1504519574.54,48050,18.06,73450.3,8.33,-1.83,-3.11,0,*75
1504519575.74,48051,18.06,73446.8,8.31,-2.31,-3.71,0,*7A
1504519576.92,48052,18.06,73446.5,8.27,-3.87,-4.99,0,*73
1504519578.14,48053,18.06,73446.8,8.25,-1.29,-2.15,0,*74
1504519579.34,48054,18.0,73448.3,8.23,-0.61,-1.47,0,*4C
1504519580.55,48055,18.06,73454.8,8.21,0.17,-0.81,0,*58
1504519581.73,48056,18.0,73454.5,8.23,-0.37,-1.59,0,*42
1504519582.98,48057,18.06,73454.0,8.21,-4.05,-5.27,0,*79
1504519584.18,48058,18.0,73450.0,8.17,-2.27,-3.23,0,*77
1504519585.42,48059,18.06,73444.8,8.17,-2.11,-2.87,0,*7C
1504519586.67,48060,18.06,73442.5,8.17,-1.39,-2.15,0,*74
1504519587.88,48061,18.0,73446.8,8.17,-1.59,-2.39,0,*7D
1504519589.12,48062,18.0,73446.5,8.15,-1.91,-2.55,0,*72
1504519590.33,48063,18.06,73448.5,8.15,-1.29,-1.91,0,*7B
1504519591.55,48064,18.06,73446.5,8.11,-3.19,-3.75,0,*71
1504519592.79,48065,18.0,73448.5,8.09,-1.95,-2.63,0,*79
1504519594.02,48066,18.06,73452.8,8.09,-0.27,-1.09,0,*4D
1504519595.24,48067,18.0,73446.8,8.09,-1.33,-2.11,0,*72
1504519596.43,48068,18.0,73444.0,8.09,-0.81,-1.67,0,*47
1504519597.63,48069,18.0,73446.5,8.09,-0.33,-1.13,0,*4C
1504519598.83,48070,18.0,73446.0,8.09,0.29,-0.45,0,*50
1504519600.03,48071,18.06,73448.3,8.09,0.37,-0.33,0,*5F
1504519601.25,48072,18.06,73450.3,8.11,-0.15,-1.13,0,*4B
1504519602.49,48073,18.0,73448.0,8.11,-4.61,-5.65,0,*78
1504519603.74,48074,18.06,73450.5,8.11,-1.71,-2.63,0,*7A
1504519604.96,48075,18.06,73452.5,8.11,0.37,-0.49,0,*5F
1504519606.18,48076,18.06,73452.5,8.11,0.87,-0.07,0,*6D
1504519607.38,48077,18.06,73452.3,8.15,1.13,0.05,0,*7B
1504519608.6,48078,18.06,73450.5,8.17,0.13,-1.25,0,*69
1504519609.84,48079,18.06,73454.3,8.17,-0.85,-2.23,0,*4F
1504519611.03,48080,18.06,73450.8,8.17,0.01,-1.25,0,*5D
1504519612.24,48081,18.0,73448.3,8.19,-0.93,-2.15,0,*44
1504519613.46,48082,18.06,73450.3,8.19,0.21,-0.93,0,*5F
1504519614.68,48083,18.0,73448.0,8.19,0.25,-0.93,0,*5A
1504519615.9,48084,18.06,73452.0,8.21,0.51,-0.49,0,*52
1504519617.12,48085,18.0,73448.0,8.21,0.63,-0.57,0,*5D
1504519618.32,48086,18.06,73450.8,8.23,0.87,-0.73,0,*50
1504519619.54,48087,18.06,73448.8,8.25,0.09,-2.03,0,*54
1504519620.73,48088,18.0,73446.3,8.27,0.13,-2.87,0,*6E
1504519621.91,48089,18.06,73448.3,8.27,-0.37,-3.19,0,*42
1504519623.1,48090,18.06,73448.0,8.27,-1.51,-4.21,0,*77
1504519624.28,48091,18.0,73446.5,8.27,-1.55,-4.41,0,*74
1504519625.52,48092,18.0,73446.0,8.27,-2.55,-5.07,0,*77
1504519626.7,48093,18.06,73450.3,8.27,-2.19,-4.45,0,*79
1504519627.93,48094,18.0,73450.3,8.29,-1.51,-3.51,0,*7D
1504519629.14,48095,18.0,73450.3,8.29,-1.63,-3.75,0,*7B
1504519630.39,48096,18.0,73448.0,8.29,-3.91,-6.27,0,*75
1504519631.63,48097,18.0,73450.0,8.29,-4.57,-7.01,0,*7C
1504519632.85,48098,18.0,73450.3,8.25,-4.37,-7.05,0,*7D
1504519634.07,48099,18.06,73454.0,8.21,-4.25,-7.23,0,*7F
1504519635.33,48100,18.06,73452.3,8.21,-3.71,-6.23,0,*79
1504519636.57,48101,18.06,73452.8,8.25,-2.31,-4.89,0,*7B
1504519637.76,48102,18.06,73452.0,8.23,-3.23,-6.55,0,*7F
1504519638.94,48103,18.06,73452.0,8.23,-5.55,-8.25,0,*70
1504519640.13,48104,18.06,73452.3,8.23,-4.17,-6.47,0,*7A
1504519641.34,48105,18.0,73452.8,8.25,-4.99,-7.23,0,*78
1504519642.6,48106,18.0,73450.8,8.25,-3.43,-5.77,0,*78
1504519643.81,48107,18.06,73452.8,8.27,-1.91,-4.41,0,*72
1504519645.02,48108,18.0,73452.0,8.27,-3.27,-6.23,0,*74
1504519646.23,48109,18.0,73454.3,8.31,-4.41,-7.57,0,*77
1504519647.44,48110,18.06,73454.0,8.29,-4.53,-7.15,0,*73
1504519648.71,48111,18.06,73452.3,8.29,-3.67,-6.27,0,*72
1504519649.97,48112,18.06,73452.8,8.33,-3.51,-6.19,0,*72
1504519651.19,48113,18.06,73452.8,8.33,-3.87,-6.73,0,*74
1504519652.4,48114,18.06,73454.5,8.35,-3.83,-7.05,0,*71
1504519653.63,48115,18.06,73452.3,8.35,-7.39,-11.33,0,*47
1504519654.88,48116,18.0,73452.8,8.33,-9.41,-12.93,0,*4A
1504519656.11,48117,18.0,73448.0,8.31,-7.19,-10.41,0,*47
1504519657.38,48118,18.0,73450.3,8.29,-7.61,-10.75,0,*49
1504519658.63,48119,18.06,73450.3,8.29,-7.43,-10.31,0,*48
1504519659.9,48120,18.06,73448.8,8.29,-7.35,-9.83,0,*72
1504519661.09,48121,18.06,73450.8,8.27,-8.75,-11.11,0,*44
1504519662.29,48122,18.06,73450.5,8.25,-8.33,-9.89,0,*7F
1504519663.5,48123,18.06,73452.0,8.25,-7.11,-8.67,0,*70
1504519664.74,48124,18.0,73448.5,8.25,-5.65,-7.19,0,*70
1504519665.98,48125,18.0,73448.5,8.25,-5.03,-6.55,0,*78
1504519667.17,48126,18.06,73450.8,8.27,-3.39,-5.47,0,*76
1504519668.39,48127,18.06,73450.3,8.27,-3.95,-6.27,0,*74
1504519669.61,48128,18.0,73446.8,8.27,-4.81,-6.23,0,*7D
1504519670.85,48129,18.06,73446.3,8.29,-4.53,-4.77,0,*7E
1504519672.08,48130,18.0,73444.0,8.33,-3.47,-3.15,0,*7C
1504519673.29,48131,18.06,73446.0,8.33,-1.75,-2.39,0,*71
1504519674.53,48132,18.06,73444.0,8.41,-1.25,-2.67,0,*79
1504519675.73,48133,18.0,73442.3,8.45,-1.33,-3.31,0,*79
1504519676.96,48134,18.0,73436.5,8.47,-1.59,-3.55,0,*72
1504519678.16,48135,18.06,73440.3,8.45,-1.95,-3.23,0,*70
1504519679.38,48136,18.06,73440.8,8.47,-0.41,-1.67,0,*4B
1504519680.62,48137,18.06,73440.5,8.51,-0.77,-2.47,0,*49
1504519681.85,48138,18.06,73442.0,8.51,0.13,-1.29,0,*62
1504519683.07,48139,18.06,73440.5,8.51,0.75,-0.77,0,*59
1504519684.27,48140,18.0,73440.0,8.55,0.05,-1.71,0,*53
1504519685.51,48141,18.06,73436.0,8.55,-1.05,-2.83,0,*70
1504519686.7,48142,18.06,73436.5,8.53,-1.29,-3.23,0,*70
1504519687.93,48143,18.06,73442.8,8.53,-2.11,-4.25,0,*78
1504519689.15,48144,18.06,73442.3,8.53,-3.23,-5.19,0,*71
1504519690.34,48145,18.06,73444.5,8.49,-2.19,-4.05,0,*7F
1504519691.53,48146,18.0,73442.3,8.49,-0.69,-2.31,0,*48
1504519692.71,48147,18.06,73444.5,8.49,-0.69,-2.27,0,*4E
1504519693.93,48148,18.06,73448.3,8.47,-1.55,-3.35,0,*73
1504519695.12,48149,18.06,73450.5,8.45,-1.79,-3.95,0,*74
1504519696.32,48150,18.06,73450.0,8.45,-1.17,-4.09,0,*76
1504519697.5,48151,18.0,73446.5,8.45,-2.91,-6.13,0,*73
1504519698.71,48152,18.06,73448.8,8.39,-2.23,-5.77,0,*73
1504519699.97,48153,18.06,73448.5,8.41,-2.67,-6.23,0,*7F
1504519701.16,48154,18.0,73444.3,8.39,-3.15,-6.35,0,*74
1504519702.37,48155,18.0,73440.8,8.41,-2.87,-6.01,0,*77
1504519703.55,48156,18.06,73446.0,8.35,-4.99,-8.17,0,*77
1504519704.78,48157,18.06,73444.8,8.33,-4.41,-7.95,0,*70
1504519705.99,48158,18.06,73446.3,8.33,-4.29,-8.59,0,*7E
1504519707.23,48159,18.06,73444.3,8.33,-5.15,-8.89,0,*7C
1504519708.46,48160,18.06,73446.5,8.29,-5.61,-8.67,0,*7E
1504519709.7,48161,18.06,73444.3,8.29,-4.65,-7.27,0,*71
1504519710.9,48162,18.06,73446.5,8.31,-4.93,-6.59,0,*7A
1504519712.13,48163,18.06,73446.3,8.27,-4.77,-5.61,0,*7E
1504519713.36,48164,18.06,73448.3,8.29,-3.03,-3.43,0,*75
1504519714.58,48165,18.06,73446.0,8.31,-1.43,-1.51,0,*7A
1504519715.81,48166,18.06,73448.5,8.31,-1.01,-1.13,0,*79
1504519717.01,48167,18.0,73446.0,8.33,0.13,0.01,0,*4A
1504519718.23,48168,18.06,73450.8,8.35,0.87,0.67,0,*7E
1504519719.46,48169,18.0,73444.0,8.45,0.91,0.51,0,*7A
1504519720.69,48170,18.0,73450.5,8.45,2.01,1.63,0,*79
1504519721.92,48171,18.06,73452.0,8.49,2.77,2.39,0,*79
1504519723.17,48172,18.06,73450.3,8.51,2.43,1.93,0,*77